DIAMANT R/B, 1805

Orbit data source: Space-Track

DIAMANT R/B, 1805 is space debris in LEO originally from a launch on Fri, 26 Nov 1965 UTC launched from the Hamma Guira Space Track Range (HGSTR). Debris objects in space refer to the collection of defunct objects orbiting the Earth. Examples of debris include non-operational satellites, rocket bodies, and fragments generated from explosions, collisions, or faulty payload assembly.

Loading next visibility...
Identifier
1805, 1965-096B
Orbit
LEO
Country
Flag of FRFR
Related business
Manufacturer
Sud
Mission
Spacecraft
Bus & Motor
RUBIS, Unknown motor
Mass
65 kg wet, 65 kg dry
Launch date (UTC)
1965-11-26 (61 years ago)
Launch vehicle
Unknown
Launch site
Hamma Guira Space Track Range (HGSTR)
Object type
Payload
Rocket body
Debris
Shape & HBR
CYL, 1.1 m
Radar Cross Section
Large (>1 m²)

Expand to show TLE details & history
Last TLE update: 15 hours ago

TLE from 15 hours ago
0 DIAMANT R/B
1 01805U 65096B   26262.93999353  .00000919  00000-0  19404-3 0  9998
2 01805  34.2442 230.6158 0581227  76.1027 290.3567 13.88309978 17891
Epoch: 2026-09-19T22:33Z
TLE epoch observation values (Epoch: 2026-09-19T22:33:35.440Z)
Latitude
-0.00004°
Longitude
-106.62325°
Altitude
807.965 km
Speed
7.515 km/s
True Right ascension
15h 22m 27s
True Declination
0° 00' 00"
Sunlit
Object was in daylight at epoch
Visualization orbit readout
Latitude
Unknown
Longitude
Unknown
Altitude
Unknown
Speed
Unknown
Apparent Right ascension
Unknown
Apparent Declination
Unknown
Sunlit
N/A
Visualization observer readout
Local Sidereal Time
06:48:35
Azimuth
Unknown
Elevation
Unknown
Doppler factor
Unknown
Orbital elements
Apogee altitude
1,362.962 km
Perigee altitude
512.524 km
Semi-major axis
7,315.88 km
Eccentricity
0.05812
Inclination
34.2442°
RAAN
230.6158°
Arg. of periapsis
76.1027°
True anomaly
283.9639°
Mean anomaly
290.3567°
Eccentric anomaly
287.17502°
Mean motion
3.46851 °/min
Orbital period
103.79 mins
BSTAR
0.00019404
Loading maneuver chart data...
Computing Atmospheric mass density...
Loading historical data...
Loading historical data...
Loading historical data...
Loading historical data...
Loading historical data...
Loading historical data...
Loading historical data...
Other satellites on launch #96 in the year 1965 (1965-11-26 UTC)

Documentation

Showing up to 5 results
|